Clearfield, PA

3:13 PM EDT on July 28, 2016 (GMT -0400)
Clearfield-Lawrence

Weather History for KFIG - April, 2013

Change the Weather History Date:

Wednesday, April 10, 2013

  Actual Average (KDUJ) Record (KDUJ)
Temperature  
Mean Temperature 67 °F 45 °F  
Max Temperature 79 °F 55 °F 75 °F (2013)
Min Temperature 57 °F 34 °F 12 °F (2016)
Degree Days  
Heating Degree Days 0 20  
Month to date heating degree days 222  
Since 1 July heating degree days 6180  
Cooling Degree Days 2 0  
Month to date cooling degree days 0  
Year to date cooling degree days 0  
Growing Degree Days 17 (Base 50)    
Moisture  
Dew Point 55 °F    
Average Humidity 76    
Maximum Humidity 97    
Minimum Humidity 48    
Precipitation  
Precipitation 1.14 in 0.12 in 1.43 in (1990)
Month to date precipitation 1.18  
Sea Level Pressure  
Sea Level Pressure 29.89 in    
Wind  
Wind Speed 7 mph (SW)    
Max Wind Speed 21 mph    
Max Gust Speed 39 mph    
Visibility 8 miles    
Events Rain , Thunderstorm    
T = Trace of Precipitation, MM = Missing Value Source: NWS Daily Summary

Daily Weather History Graph

Daily Weather History Graph

Search for Another Location

Airport or City:

Trip Planner

Search our weather history database for the weather conditions in past years. The results will help you decide how hot, cold, wet, or windy it might be!

Date:

Astronomy

Apr. 10, 2013 Rise Set
Actual Time 6:41 AM EDT 7:48 PM EDT
Civil Twilight 6:13 AM EDT 8:16 PM EDT
Nautical Twilight 5:40 AM EDT 8:50 PM EDT
Astronomical Twilight 5:04 AM EDT 9:25 PM EDT
Moon 6:36 AM EDT (4/10) 8:22 PM EDT (4/10)
Length of Visible Light 14h 02m
Length of Day
13h 06m
New Moon, 0% of the Moon is Illuminated
Apr 10
New Moon
Apr 18
First Quarter
Apr 25
Full
May 2
Last Quarter
May 9
New

Hourly Weather History & Observations

Time (EDT) Temp. Dew Point Humidity Pressure Visibility Wind Dir Wind Speed Gust Speed Precip Events Conditions
12:54 AM 61.0 °F 50.0 °F 67% 29.89 in 10.0 mi South 4.6 mph - N/A   Mostly Cloudy
1:54 AM 61.0 °F 50.0 °F 67% 29.90 in 10.0 mi SSW 6.9 mph - N/A   Scattered Clouds
2:54 AM 63.0 °F 51.1 °F 65% 29.88 in 10.0 mi WSW 4.6 mph - N/A   Overcast
3:54 AM 64.9 °F 51.1 °F 61% 29.90 in 10.0 mi SSW 6.9 mph - N/A   Overcast
4:54 AM 64.9 °F 51.1 °F 61% 29.90 in 10.0 mi SSW 4.6 mph - N/A   Overcast
5:54 AM 64.0 °F 51.1 °F 63% 29.91 in 10.0 mi NNE 3.5 mph - N/A   Overcast
6:54 AM 63.0 °F 50.0 °F 63% 29.92 in 10.0 mi Calm Calm - N/A   Overcast
7:54 AM 63.0 °F 50.0 °F 63% 29.94 in 10.0 mi Calm Calm - N/A   Overcast
8:54 AM 64.9 °F 53.1 °F 65% 29.93 in 10.0 mi SSW 8.1 mph - N/A   Overcast
9:54 AM 71.1 °F 54.0 °F 55% 29.91 in 10.0 mi WSW 10.4 mph 19.6 mph N/A   Scattered Clouds
10:54 AM 72.0 °F 55.0 °F 55% 29.92 in 10.0 mi WSW 18.4 mph 26.5 mph N/A   Overcast
11:54 AM 73.0 °F 55.9 °F 55% 29.91 in 10.0 mi WSW 11.5 mph 19.6 mph N/A   Mostly Cloudy
2:54 PM 75.9 °F 55.0 °F 48% 29.85 in 10.0 mi SW 11.5 mph 21.9 mph 0.00 in   Mostly Cloudy
3:09 PM 75.2 °F 55.4 °F 50% 29.87 in 10.0 mi SW 17.3 mph 26.5 mph 0.00 in Thunderstorm Thunderstorm
3:32 PM 64.4 °F 57.2 °F 77% 29.90 in 4.0 mi NW 8.1 mph 29.9 mph 0.02 in Rain , Thunderstorm Thunderstorms and Rain
3:54 PM 62.1 °F 59.0 °F 90% 29.87 in 10.0 mi WNW 4.6 mph - 0.06 in Thunderstorm Scattered Clouds
4:08 PM 62.6 °F 59.0 °F 88% 29.89 in 10.0 mi Calm Calm - N/A   Scattered Clouds
4:30 PM 64.4 °F 60.8 °F 88% 29.90 in 10.0 mi WSW 16.1 mph 28.8 mph 0.00 in Rain , Thunderstorm Light Rain
4:54 PM 63.0 °F 55.9 °F 78% 29.79 in 10.0 mi South 10.4 mph 20.7 mph 0.02 in Rain Light Rain
5:54 PM 64.9 °F 57.0 °F 75% 29.82 in 10.0 mi SSW 10.4 mph - 0.00 in   Partly Cloudy
6:54 PM 64.9 °F 59.0 °F 81% 29.80 in 10.0 mi SSW 3.5 mph - 0.00 in Rain Light Rain
7:13 PM 62.6 °F 59.0 °F 88% 29.82 in 10.0 mi Variable 3.5 mph - 0.01 in Rain , Thunderstorm Light Rain
7:23 PM 64.4 °F 59.0 °F 83% 29.90 in 1.8 mi West 20.7 mph 39.1 mph 0.21 in Rain , Thunderstorm Heavy Thunderstorms and Rain
7:30 PM 62.6 °F 57.2 °F 82% 29.87 in 1.5 mi NW 12.7 mph 36.8 mph 0.32 in Rain , Thunderstorm Heavy Thunderstorms and Rain
7:35 PM 62.6 °F 57.2 °F 82% 29.89 in 4.0 mi Variable 6.9 mph - 0.33 in Rain , Thunderstorm Thunderstorms and Rain
7:54 PM 61.0 °F 57.9 °F 90% 29.88 in 5.0 mi South 4.6 mph - 0.38 in Rain , Thunderstorm Rain
8:07 PM 60.8 °F 57.2 °F 88% 29.90 in 6.0 mi SSW 5.8 mph - 0.02 in Rain , Thunderstorm Rain
8:28 PM 59.0 °F 57.2 °F 94% 29.89 in 4.0 mi SSE 4.6 mph - 0.09 in Rain , Thunderstorm Heavy Thunderstorms and Rain
8:54 PM 59.0 °F 57.0 °F 93% 29.89 in 4.0 mi SSW 3.5 mph - 0.18 in Rain , Thunderstorm Heavy Thunderstorms and Rain
9:20 PM 60.8 °F 57.2 °F 88% 29.88 in 7.0 mi NNW 12.7 mph 20.7 mph 0.08 in Rain Rain
9:54 PM 60.1 °F 57.0 °F 90% 29.91 in 4.0 mi WSW 9.2 mph 18.4 mph 0.18 in Rain Heavy Rain
10:13 PM 59.0 °F 57.2 °F 94% 29.94 in 3.0 mi WSW 5.8 mph - 0.06 in Rain , Thunderstorm Heavy Thunderstorms and Rain
10:54 PM 60.1 °F 55.9 °F 86% 29.89 in 6.0 mi West 5.8 mph - 0.22 in Rain Rain
11:54 PM 57.9 °F 57.0 °F 97% 29.83 in 8.0 mi SSE 4.6 mph - 0.10 in Rain Light Rain